1507190400.5,59227,12.69,73102.5,1.09,-0.27,-0.11,0,*7B
1507190401.72,59228,12.69,73102.3,1.09,-0.03,0.13,0,*6D
1507190402.93,59229,12.69,73092.0,1.09,-0.33,-0.11,0,*70
1507190404.12,59230,12.69,73074.0,1.11,-0.41,-0.29,0,*7F
1507190405.36,59231,12.69,73068.5,1.09,-1.29,-1.09,0,*7B
1507190406.58,59232,12.69,73086.8,1.09,-1.63,-1.25,0,*78
1507190407.84,59233,12.69,73092.0,1.09,-1.47,-1.09,0,*71
1507190409.07,59234,12.69,73136.5,1.07,-1.25,-0.77,0,*44
1507190410.27,59235,12.69,73118.8,1.07,-0.37,0.09,0,*63
1507190411.49,59236,12.69,73114.0,1.07,-0.41,-0.03,0,*46
1507190412.69,59237,12.69,73116.3,1.09,-0.45,0.01,0,*62
1507190413.86,59238,12.69,73122.3,1.11,-0.57,0.01,0,*67
1507190415.08,59239,12.69,73124.0,1.09,-0.61,0.13,0,*59
1507190416.29,59240,12.69,73136.8,1.11,-0.45,0.51,0,*5E
1507190417.52,59241,12.69,73138.5,1.11,-0.85,0.41,0,*52
1507190418.72,59242,12.69,73122.3,1.11,-0.61,0.55,0,*5E
1507190419.92,59243,12.69,73118.3,1.15,-0.29,0.67,0,*56
1507190421.12,59244,12.69,73104.8,1.15,0.09,0.83,0,*44
1507190422.33,59245,12.69,73094.3,1.15,-0.19,0.33,0,*52
1507190423.55,59246,12.69,73086.8,1.17,-0.07,0.33,0,*6C
1507190424.77,59247,12.69,73086.5,1.21,-0.11,0.13,0,*5D
1507190425.99,59248,12.69,73092.5,1.17,-0.19,-0.15,0,*74
1507190427.22,59249,12.69,73086.3,1.21,-0.37,-0.27,0,*7D
1507190428.42,59250,12.69,73078.5,1.17,-0.03,0.09,0,*56
1507190429.63,59251,12.69,73076.3,1.21,-0.15,-0.15,0,*75
1507190430.83,59252,12.69,73088.8,1.21,-0.61,-0.65,0,*72
1507190432.04,59253,12.69,73096.8,1.21,-0.73,-0.77,0,*73
1507190433.27,59254,12.69,73096.0,1.17,-0.81,-0.89,0,*7D
1507190434.48,59255,12.69,73088.0,1.21,-0.77,-0.77,0,*71
1507190435.69,59256,12.69,73082.3,1.17,-0.77,-0.69,0,*78
1507190436.94,59257,12.69,73080.3,1.21,-0.85,-0.85,0,*73
1507190438.18,59258,12.69,73076.0,1.17,-0.89,-0.81,0,*71
1507190439.41,59259,12.69,73076.5,1.17,-0.89,-0.81,0,*70
1507190440.64,59260,12.69,73080.5,1.17,-0.93,-0.81,0,*71
1507190441.88,59261,12.69,73092.8,1.17,-0.89,-0.77,0,*72
1507190443.15,59262,12.69,73086.3,1.17,-1.05,-1.05,0,*70
1507190444.43,59263,12.69,73086.0,1.17,-1.05,-1.05,0,*71
1507190445.63,59264,12.69,73078.0,1.15,-1.21,-1.17,0,*71
1507190446.88,59265,12.69,73064.8,1.15,-1.13,-1.05,0,*72
1507190448.15,59266,12.69,73082.3,1.13,-1.09,-1.05,0,*7C
1507190449.41,59267,12.69,73094.0,1.13,-1.09,-0.97,0,*47
1507190450.66,59268,12.69,73092.5,1.15,-1.01,-1.05,0,*7C
1507190451.85,59269,12.69,73098.5,1.15,-0.77,-0.65,0,*7A
1507190453.03,59270,12.69,73102.0,1.15,-0.65,-0.65,0,*71
1507190454.25,59271,12.69,73114.5,1.13,-0.57,-0.57,0,*76
1507190455.46,59272,12.69,73118.3,1.13,-0.69,-0.61,0,*7D
1507190456.65,59273,12.69,73116.0,1.15,-0.41,-0.29,0,*7C
1507190457.84,59274,12.69,73114.3,1.15,-0.77,-0.77,0,*75
1507190459.07,59275,12.69,73106.0,1.15,-1.17,-1.05,0,*77
1507190460.31,59276,12.69,73114.5,1.13,-0.85,-0.57,0,*7E
1507190461.5,59277,12.69,73108.8,1.15,-0.41,-0.29,0,*78
1507190462.74,59278,12.69,73114.0,1.17,-0.41,-0.27,0,*7B
1507190463.97,59279,12.69,73106.0,1.17,-0.27,-0.07,0,*48
1507190465.18,59280,12.69,73104.5,1.21,-0.37,-0.15,0,*79
1507190466.39,59281,12.69,73112.0,1.25,-0.33,-0.11,0,*7C
1507190467.58,59282,12.69,73116.8,1.23,-0.37,-0.19,0,*75
1507190468.81,59283,12.69,73118.8,1.25,-0.97,-0.57,0,*72
1507190470.02,59284,12.69,73116.8,1.23,-0.85,-0.57,0,*70
1507190471.22,59285,12.69,73124.8,1.23,-1.21,-0.73,0,*48
1507190472.45,59286,12.69,73124.8,1.25,-1.09,-0.45,0,*42
1507190473.67,59287,12.69,73086.0,1.23,-1.47,-0.81,0,*47
1507190474.9,59288,12.69,73096.5,1.25,-1.09,-0.29,0,*46
1507190476.1,59289,12.69,73092.8,1.25,-0.45,0.01,0,*69
1507190477.3,59290,12.69,73086.8,1.27,-0.19,0.41,0,*5E
1507190478.47,59291,12.69,73088.5,1.27,-0.29,0.05,0,*6C
1507190479.67,59292,12.69,73092.5,1.27,-0.19,0.17,0,*5F
1507190480.87,59293,12.69,73100.8,1.29,-0.19,-0.03,0,*48
1507190482.07,59294,12.69,73096.3,1.31,-0.03,0.33,0,*63
1507190483.29,59295,12.69,73108.3,1.31,0.13,0.47,0,*7D
1507190484.5,59296,12.69,73118.8,1.33,-0.37,-0.11,0,*79
1507190485.73,59297,12.69,73112.0,1.33,-0.41,-0.23,0,*78
1507190486.91,59298,12.69,73102.8,1.35,-0.73,-0.57,0,*73
1507190488.11,59299,12.69,73110.3,1.35,-0.85,-0.61,0,*7E
1507190489.33,59300,12.69,73116.3,1.33,-0.41,-0.15,0,*72
1507190490.54,59301,12.69,73116.3,1.33,-0.53,-0.15,0,*70
1507190491.75,59302,12.69,73110.5,1.35,-1.21,-0.93,0,*4F
1507190492.96,59303,12.69,73110.0,1.35,-1.01,-0.73,0,*42
1507190494.16,59304,12.69,73126.8,1.35,-0.85,-0.61,0,*7B
1507190495.36,59305,12.69,73120.3,1.35,-0.85,-0.61,0,*7A
1507190496.58,59306,12.69,73114.8,1.35,-1.01,-0.73,0,*47
1507190497.81,59307,12.69,73120.3,1.35,-1.01,-0.85,0,*4F
1507190499.02,59308,12.69,73124.3,1.35,-1.21,-0.97,0,*41
1507190500.24,59309,12.69,73102.5,1.35,-1.71,-1.47,0,*79
1507190501.48,59310,12.69,73096.3,1.33,-1.71,-1.35,0,*72
1507190502.73,59311,12.69,73092.8,1.31,-2.03,-1.39,0,*7B
1507190503.96,59312,12.69,73084.3,1.31,-1.47,-0.89,0,*41
1507190505.2,59313,12.69,73064.8,1.33,-1.59,-1.05,0,*78
1507190506.45,59314,12.69,73086.5,1.31,-1.99,-1.35,0,*72
1507190507.64,59315,12.69,73088.0,1.31,-2.35,-1.51,0,*74
1507190508.88,59316,12.69,73114.0,1.29,-2.15,-1.05,0,*7D
1507190510.11,59317,12.69,73106.3,1.29,-1.87,-0.65,0,*43
1507190511.3,59318,12.69,73084.0,1.27,-1.79,-0.57,0,*42
1507190512.51,59319,12.69,73068.0,1.29,-1.67,-0.41,0,*45
1507190513.7,59320,12.69,73086.5,1.31,-1.63,-0.49,0,*4A
1507190514.92,59321,12.69,73076.3,1.31,-1.13,-0.15,0,*45
1507190516.1,59322,12.69,73066.5,1.31,-0.77,-0.03,0,*42
1507190517.34,59323,12.69,73066.3,1.33,-0.73,-0.23,0,*77
1507190518.57,59324,12.69,73062.5,1.33,-0.97,-0.53,0,*7D
1507190519.78,59325,12.69,73024.5,1.31,-1.25,-0.85,0,*4D
1507190521.02,59326,12.69,73022.5,1.33,-1.71,-1.39,0,*7B
1507190522.27,59327,12.69,73036.5,1.31,-1.87,-1.47,0,*78
1507190523.51,59328,12.69,73036.0,1.33,-1.87,-1.29,0,*7D
1507190524.75,59329,12.69,73062.8,1.33,-1.91,-1.29,0,*7B
1507190525.99,59330,12.69,73074.0,1.31,-1.99,-1.01,0,*73
1507190527.23,59331,12.69,73082.0,1.31,-1.47,-0.23,0,*40
1507190528.46,59332,12.69,73096.3,1.31,-1.05,0.25,0,*6E
1507190529.69,59333,12.69,73076.5,1.31,-1.01,0.13,0,*6E
1507190530.92,59334,12.69,73074.8,1.33,-0.85,0.09,0,*6D
1507190532.13,59335,12.69,73080.5,1.35,-1.13,-0.57,0,*42
1507190533.32,59336,12.69,73070.0,1.35,-1.21,-0.73,0,*46
1507190534.55,59337,12.69,73058.0,1.35,-1.35,-0.93,0,*4C
1507190535.78,59338,12.69,73068.8,1.33,-1.59,-1.13,0,*76
1507190537.02,59339,12.69,73060.8,1.31,-1.47,-1.01,0,*79
1507190538.27,59340,12.69,73064.0,1.31,-1.39,-1.05,0,*7A
1507190539.48,59341,12.69,73074.8,1.31,-0.97,-0.49,0,*77
1507190540.66,59342,12.69,73078.5,1.31,-0.65,-0.29,0,*7F
1507190541.88,59343,12.69,73082.3,1.31,-1.05,-0.73,0,*46
1507190543.12,59344,12.69,73072.8,1.31,-1.47,-0.89,0,*42
1507190544.33,59345,12.69,73076.8,1.31,-1.75,-1.01,0,*73
1507190545.57,59346,12.69,73042.8,1.31,-1.83,-0.89,0,*48
1507190546.81,59347,12.69,73054.5,1.31,-1.99,-1.13,0,*70
1507190548.02,59348,12.69,73082.3,1.29,-2.15,-1.33,0,*73
1507190549.25,59349,12.69,73088.8,1.29,-1.51,-0.89,0,*41
1507190550.49,59350,12.69,73104.3,1.29,-1.01,-0.41,0,*48
1507190551.68,59351,12.69,73102.0,1.27,-1.17,-0.57,0,*47
1507190552.9,59352,12.69,73118.3,1.29,-1.33,-0.77,0,*4E
1507190554.11,59353,12.69,73140.8,1.27,-1.09,-0.53,0,*4E
1507190555.35,59354,12.69,73162.8,1.29,-1.01,-0.29,0,*42
1507190556.57,59355,12.69,73152.0,1.31,-1.05,-0.41,0,*40
1507190557.78,59356,12.69,73132.3,1.27,-1.43,-0.69,0,*4C
1507190559.01,59357,12.69,73114.3,1.29,-1.75,-0.93,0,*43
1507190560.22,59358,12.69,73088.8,1.29,-1.63,-0.77,0,*41
1507190561.43,59359,12.69,73094.3,1.29,-1.63,-0.57,0,*42
1507190562.66,59360,12.69,73108.0,1.29,-0.89,0.09,0,*6B
1507190563.89,59361,12.69,73102.3,1.29,-0.89,-0.03,0,*4D
1507190565.11,59362,12.69,73068.3,1.29,-0.89,0.09,0,*69
1507190566.33,59363,12.69,73078.5,1.29,-0.77,0.17,0,*56
1507190567.56,59364,12.69,73084.3,1.29,-0.45,0.33,0,*56
1507190568.76,59365,12.69,73090.5,1.31,-0.41,0.47,0,*59
1507190569.96,59366,12.69,73126.3,1.31,-0.29,0.47,0,*54
1507190571.19,59367,12.69,73132.0,1.33,-0.37,0.21,0,*58
1507190572.4,59368,12.69,73138.8,1.33,-0.65,-0.11,0,*7E
1507190573.59,59369,12.69,73118.5,1.35,-0.81,-0.37,0,*77
1507190574.8,59370,12.69,73122.0,1.35,-1.01,-0.81,0,*4B
1507190576.04,59371,12.69,73134.8,1.31,-1.35,-1.05,0,*74
1507190577.23,59372,12.69,73088.3,1.31,-1.63,-1.59,0,*7D
1507190578.47,59373,12.69,73090.3,1.33,-1.59,-1.47,0,*78
1507190579.66,59374,12.69,73088.3,1.31,-1.71,-1.51,0,*70
1507190580.87,59375,12.69,73100.0,1.29,-1.51,-1.33,0,*7E
1507190582.12,59376,12.69,73118.8,1.29,-1.39,-1.29,0,*78
1507190583.33,59377,12.69,73096.8,1.27,-1.01,-0.77,0,*46
1507190584.52,59378,12.69,73118.5,1.27,-0.81,-0.65,0,*73
1507190585.73,59379,12.69,73108.3,1.27,-1.29,-1.09,0,*7A
1507190586.95,59380,12.69,73072.3,1.27,-1.43,-1.21,0,*7A
1507190588.17,59381,12.69,73056.8,1.25,-1.33,-1.21,0,*7E
1507190589.44,59382,12.69,73028.0,1.25,-1.05,-0.97,0,*44
1507190590.67,59383,12.69,73046.3,1.25,-1.59,-1.43,0,*74
1507190591.89,59384,12.69,73040.5,1.23,-1.83,-1.55,0,*75
1507190593.14,59385,12.69,73060.0,1.23,-1.43,-1.09,0,*71
1507190594.35,59386,12.69,73070.3,1.21,-0.41,-0.15,0,*7F
1507190595.58,59387,12.69,73086.5,1.21,-0.15,0.21,0,*55
1507190596.8,59388,12.69,73094.8,1.23,-0.23,0.17,0,*58
1507190598.01,59389,12.69,73088.3,1.25,-0.49,-0.33,0,*78
1507190599.22,59390,12.69,73086.8,1.25,-0.37,-0.19,0,*71
1507190600.41,59391,12.69,73086.5,1.23,-0.49,-0.33,0,*77
1507190601.63,59392,12.69,73106.5,1.25,-0.49,-0.23,0,*73
1507190602.85,59393,12.69,73084.8,1.23,-0.85,-0.73,0,*71
1507190604.03,59394,12.69,73072.8,1.23,-0.61,-0.49,0,*75
1507190605.22,59395,12.69,73082.3,1.23,-0.73,-0.61,0,*7D
1507190606.4,59396,12.69,73090.0,1.23,-0.57,-0.61,0,*78
1507190607.66,59397,12.69,73058.0,1.21,-1.09,-1.13,0,*75
1507190608.92,59398,12.69,73072.5,1.21,-1.01,-1.09,0,*79
1507190610.16,59399,12.69,73064.3,1.21,-1.09,-1.17,0,*7F
1507190611.42,59400,12.69,73086.5,1.21,-0.97,-1.09,0,*41
1507190612.66,59401,12.69,73102.5,1.17,-1.13,-1.33,0,*71
1507190613.87,59402,12.69,73118.5,1.17,-0.65,-0.69,0,*7C
1507190615.07,59403,12.69,73076.3,1.21,-0.61,-0.61,0,*74
1507190616.29,59404,12.69,73038.0,1.17,-1.17,-1.17,0,*76
1507190617.54,59405,12.69,73072.3,1.17,-1.87,-1.79,0,*76
1507190618.81,59406,12.69,73064.0,1.17,-1.99,-1.87,0,*7B
1507190620.0,59407,12.69,73068.3,1.15,-1.63,-1.55,0,*72
1507190621.23,59408,12.69,73094.5,1.13,-1.17,-1.17,0,*7E
1507190622.43,59409,12.69,73108.0,1.15,-0.81,-0.81,0,*79
1507190623.68,59410,12.69,73110.8,1.13,-0.85,-0.97,0,*74
1507190624.91,59411,12.69,73094.8,1.13,-1.17,-1.17,0,*76
1507190626.18,59412,12.69,73098.8,1.13,-1.05,-0.97,0,*4F
1507190627.39,59413,12.69,73118.5,1.15,-1.29,-1.21,0,*7A
1507190628.66,59414,12.69,73124.3,1.13,-1.47,-1.35,0,*76
1507190629.88,59415,12.69,73126.5,1.09,-1.29,-1.21,0,*71
1507190631.09,59416,12.69,73128.5,1.11,-1.17,-1.17,0,*73
1507190632.33,59417,12.69,73124.8,1.09,-1.63,-1.47,0,*7D
1507190633.55,59418,12.69,73140.8,1.11,-1.43,-1.21,0,*79
1507190634.75,59419,12.69,73098.8,1.11,-1.25,-1.17,0,*7D
1507190635.97,59420,12.69,73094.3,1.11,-1.55,-1.43,0,*71
1507190637.23,59421,12.69,73094.0,1.09,-0.97,-0.89,0,*71
1507190638.44,59422,12.69,73082.5,1.09,-0.49,-0.45,0,*71
1507190639.69,59423,12.69,73068.5,1.09,-0.97,-0.85,0,*7F
1507190640.9,59424,12.69,73080.5,1.09,-0.77,-0.65,0,*78
1507190642.08,59425,12.69,73040.0,1.11,-0.61,-0.49,0,*79
1507190643.34,59426,12.69,73058.0,1.09,-1.09,-0.97,0,*4F
1507190644.6,59427,12.69,73056.3,1.09,-1.09,-0.97,0,*4E
1507190645.86,59428,12.69,73060.0,1.09,-1.09,-0.89,0,*4E
1507190647.1,59429,12.69,73058.5,1.11,-1.05,-0.93,0,*41
1507190648.34,59430,12.69,73062.0,1.09,-1.09,-0.77,0,*46
1507190649.58,59431,12.69,73036.3,1.09,-1.09,-0.77,0,*47
1507190650.82,59432,12.69,73044.5,1.09,-1.29,-1.01,0,*76
1507190652.03,59433,12.69,73068.0,1.09,-1.63,-1.25,0,*7F
1507190653.23,59434,12.69,73042.8,1.11,-1.67,-1.17,0,*74
1507190654.47,59435,12.69,73038.8,1.09,-1.83,-1.29,0,*7B
1507190655.7,59436,12.69,73086.8,1.07,-1.79,-1.29,0,*73
1507190656.97,59437,12.69,73096.5,1.07,-1.43,-1.01,0,*71
1507190658.24,59438,12.69,73062.5,1.09,-1.83,-1.35,0,*7B
1507190659.49,59439,12.69,73076.0,1.05,-2.03,-1.43,0,*7C
1507190660.71,59440,12.69,73058.8,1.07,-1.29,-0.77,0,*4D
1507190661.92,59441,12.69,73074.3,1.05,-1.55,-1.01,0,*75
1507190663.17,59442,12.69,73062.0,1.07,-1.13,-0.57,0,*44
1507190664.39,59443,12.69,73052.5,1.07,-1.25,-0.77,0,*42
1507190665.62,59444,12.69,73074.3,1.07,-1.29,-0.77,0,*49
1507190666.84,59445,12.69,73116.5,1.09,-1.21,-0.73,0,*4A
1507190668.08,59446,12.69,73108.0,1.09,-1.09,-0.45,0,*46
1507190669.27,59447,12.69,73104.0,1.11,-1.25,-0.73,0,*45
1507190670.49,59448,12.69,73124.8,1.09,-1.29,-0.77,0,*4B
1507190671.75,59449,12.69,73134.3,1.09,-1.35,-0.85,0,*4A
1507190673.0,59450,12.69,73104.3,1.07,-1.13,-0.49,0,*48
1507190674.18,59451,12.69,73096.8,1.11,-0.81,-0.29,0,*72
1507190675.42,59452,12.69,73094.3,1.09,-0.73,-0.27,0,*7B
1507190676.61,59453,12.69,73104.3,1.11,-0.73,-0.29,0,*7D
1507190677.8,59454,12.69,73110.8,1.11,-0.69,-0.33,0,*7A
1507190679.01,59455,12.69,73130.8,1.11,-0.97,-0.61,0,*7D
1507190680.2,59456,12.69,73124.5,1.11,-0.73,-0.45,0,*72
1507190681.39,59457,12.69,73106.8,1.11,-0.69,-0.33,0,*79
1507190682.57,59458,12.69,73104.3,1.11,-0.33,-0.07,0,*4E
1507190683.79,59459,12.69,73108.5,1.13,-0.45,-0.19,0,*73
1507190685.0,59460,12.69,73102.5,1.13,-0.73,-0.45,0,*75
1507190686.24,59461,12.69,73072.3,1.13,-0.85,-0.69,0,*73
1507190687.48,59462,12.69,73072.5,1.13,-0.85,-0.61,0,*78
1507190688.74,59463,12.69,73078.8,1.13,-0.97,-0.85,0,*70
1507190690.0,59464,12.69,73086.3,1.13,-0.97,-0.97,0,*74
1507190691.27,59465,12.69,73090.3,1.13,-0.97,-1.05,0,*4F
1507190692.53,59466,12.69,73096.8,1.13,-0.97,-0.93,0,*72
1507190693.76,59467,12.69,73106.3,1.15,-1.17,-1.01,0,*76
1507190695.01,59468,12.69,73092.5,1.13,-1.33,-1.09,0,*71
1507190696.23,59469,12.69,73112.0,1.13,-1.51,-1.21,0,*7E
1507190697.44,59470,12.69,73134.8,1.15,-1.51,-1.05,0,*76
1507190698.64,59471,12.69,73112.8,1.15,-1.33,-0.69,0,*48
1507190699.86,59472,12.69,73096.5,1.13,-1.33,-0.57,0,*40
1507190701.09,59473,12.69,73100.8,1.15,-1.05,-0.37,0,*44
1507190702.33,59474,12.69,73104.8,1.13,-0.93,-0.41,0,*7A
1507190703.56,59475,12.69,73108.8,1.15,-1.05,-0.57,0,*44
1507190704.78,59476,12.69,73092.0,1.15,-0.89,-0.37,0,*74
1507190705.96,59477,12.69,73074.3,1.15,-0.57,-0.29,0,*79
1507190707.2,59478,12.69,73070.5,1.17,-1.13,-0.77,0,*4E
1507190708.44,59479,12.69,73086.3,1.17,-1.29,-0.93,0,*4C
1507190709.66,59480,12.69,73076.0,1.21,-1.29,-0.77,0,*45
1507190710.89,59481,12.69,73064.0,1.21,-1.51,-0.85,0,*46
1507190712.1,59482,12.69,73090.8,1.17,-1.67,-0.81,0,*41
1507190713.31,59483,12.69,73100.3,1.17,-1.55,-0.65,0,*4B
1507190714.52,59484,12.69,73096.8,1.21,-1.51,-0.49,0,*43
1507190715.75,59485,12.69,73104.3,1.17,-1.79,-0.93,0,*4A
1507190716.97,59486,12.69,73114.8,1.21,-1.71,-0.77,0,*4E
1507190718.18,59487,12.69,73108.8,1.21,-1.29,-0.33,0,*42
1507190719.38,59488,12.69,73114.5,1.23,-1.21,-0.29,0,*4C
1507190720.57,59489,12.69,73112.8,1.23,-1.21,-0.37,0,*42
1507190721.8,59490,12.69,73118.3,1.23,-1.13,-0.37,0,*4B
1507190723.01,59491,12.69,73120.0,1.23,-1.43,-0.61,0,*4C
1507190724.24,59492,12.69,73118.8,1.25,-1.71,-0.97,0,*41
1507190725.43,59493,12.69,73138.3,1.23,-1.55,-0.45,0,*4F
1507190726.67,59494,12.69,73126.8,1.25,-1.47,-0.29,0,*47
1507190727.89,59495,12.69,73092.5,1.25,-1.21,-0.11,0,*4D
1507190729.09,59496,12.69,73060.5,1.27,-0.89,-0.03,0,*4C
1507190730.32,59497,12.69,73060.8,1.25,-0.97,-0.29,0,*78
1507190731.56,59498,12.69,73048.3,1.25,-1.25,-0.93,0,*4E
1507190732.8,59499,12.69,73054.0,1.25,-1.67,-1.43,0,*75
1507190734.01,59500,12.69,73060.8,1.25,-1.67,-1.59,0,*7F
1507190735.23,59501,12.69,73054.0,1.23,-1.83,-1.71,0,*78
1507190736.45,59502,12.69,73030.8,1.23,-1.91,-1.79,0,*70
1507190737.72,59503,12.69,73020.5,1.21,-1.39,-1.09,0,*76
1507190738.96,59504,12.69,73028.3,1.21,-0.85,-0.41,0,*7A
1507190740.17,59505,12.69,73044.8,1.21,-0.53,-0.11,0,*75
1507190741.38,59506,12.69,73064.8,1.25,-0.81,-0.07,0,*4A
1507190742.6,59507,12.69,73072.0,1.23,-1.05,-0.07,0,*70
1507190743.84,59508,12.69,73080.5,1.25,-0.85,0.13,0,*58
1507190745.05,59509,12.69,73090.0,1.27,-0.69,0.29,0,*50
1507190746.27,59510,12.69,73084.8,1.29,-0.77,0.29,0,*59
1507190747.47,59511,12.69,73090.3,1.27,-0.77,0.17,0,*5B
1507190748.67,59512,12.69,73092.3,1.31,-0.77,0.25,0,*5E
1507190749.89,59513,12.63,73076.8,1.33,-0.77,0.25,0,*5D
1507190751.12,59514,12.69,73112.5,1.33,-0.77,0.37,0,*59
1507190752.34,59515,12.69,73122.5,1.33,-0.37,0.55,0,*58
1507190753.6,59516,12.69,73120.5,1.33,-0.23,0.59,0,*52
1507190754.78,59517,12.69,73114.8,1.35,0.01,0.59,0,*48
1507190756.0,59518,12.69,73106.5,1.37,-0.03,0.51,0,*62
1507190757.2,59519,12.69,73116.3,1.39,-0.15,0.33,0,*5E
1507190758.39,59520,12.69,73104.5,1.39,-0.69,-0.19,0,*7A
1507190759.63,59521,12.69,73100.8,1.39,-0.89,-0.23,0,*7C
1507190760.84,59522,12.69,73096.0,1.39,-0.97,-0.33,0,*71
1507190762.06,59523,12.69,73112.5,1.39,-0.97,-0.33,0,*70
1507190763.27,59524,12.69,73118.3,1.43,-1.25,-0.65,0,*41
1507190764.53,59525,12.69,73106.5,1.43,-1.39,-0.93,0,*44
1507190765.74,59526,12.69,73100.3,1.39,-1.55,-0.93,0,*40
1507190766.95,59527,12.69,73094.5,1.39,-1.67,-0.89,0,*4B
1507190768.19,59528,12.69,73092.8,1.39,-1.91,-0.97,0,*42
1507190769.43,59529,12.69,73128.0,1.43,-1.75,-1.05,0,*7E
1507190770.65,59530,12.69,73142.8,1.39,-1.39,-0.69,0,*48
1507190771.85,59531,12.69,73100.5,1.39,-1.17,-0.33,0,*4A
1507190773.11,59532,12.63,73052.5,1.43,-0.89,-0.27,0,*77
1507190774.31,59533,12.69,73088.5,1.39,-0.69,0.21,0,*5E
1507190775.52,59534,12.69,73106.5,1.43,-0.77,0.09,0,*61
1507190776.73,59535,12.63,73096.8,1.45,-1.47,-0.61,0,*47
1507190777.96,59536,12.69,73080.8,1.45,-0.93,-0.27,0,*7E
1507190779.19,59537,12.69,73086.3,1.45,-1.01,-0.41,0,*45
1507190780.41,59538,12.69,73098.0,1.45,-1.05,-0.73,0,*4F
1507190781.64,59539,12.69,73094.0,1.43,-0.85,-0.61,0,*72
1507190782.88,59540,12.69,73084.0,1.43,-0.85,-0.73,0,*7F
1507190784.13,59541,12.69,73072.5,1.43,-0.89,-0.85,0,*7B
1507190785.39,59542,12.69,73076.5,1.43,-0.89,-0.89,0,*74
1507190786.6,59543,12.69,73076.0,1.39,-0.93,-0.77,0,*72
1507190787.79,59544,12.69,73114.0,1.39,-0.81,-0.81,0,*7F
1507190789.02,59545,12.69,73122.5,1.39,-1.33,-1.39,0,*74
1507190790.21,59546,12.69,73128.0,1.39,-1.51,-1.51,0,*7D
1507190791.43,59547,12.69,73144.0,1.37,-1.21,-1.21,0,*72
1507190792.67,59548,12.69,73154.8,1.37,-0.93,-0.93,0,*7D
1507190793.88,59549,12.69,73152.5,1.37,-0.77,-0.77,0,*7C
1507190795.09,59550,12.69,73140.3,1.37,-0.69,-0.69,0,*74
1507190796.28,59551,12.69,73134.8,1.39,-0.65,-0.57,0,*7A
1507190797.46,59552,12.69,73134.8,1.39,-0.65,-0.45,0,*7A
1507190798.7,59553,12.69,73136.5,1.39,-1.09,-1.05,0,*75
1507190799.9,59554,12.69,73158.0,1.39,-1.67,-1.67,0,*7E
1507190801.12,59555,12.69,73148.0,1.39,-1.91,-1.79,0,*79
1507190802.34,59556,12.69,73128.8,1.39,-1.91,-1.79,0,*7A
1507190803.56,59557,12.69,73130.8,1.39,-1.33,-0.93,0,*46
1507190804.81,59558,12.69,73134.8,1.39,-1.39,-1.05,0,*7D
1507190806.02,59559,12.69,73148.5,1.39,-1.33,-0.97,0,*4C
1507190807.24,59560,12.69,73134.8,1.39,-1.95,-1.55,0,*75
1507190808.45,59561,12.69,73122.8,1.39,-2.27,-1.83,0,*75
1507190809.67,59562,12.63,73100.0,1.37,-2.15,-1.67,0,*73
1507190810.88,59563,12.69,73122.8,1.37,-1.67,-1.29,0,*7E
1507190812.13,59564,12.69,73096.0,1.37,-1.95,-1.67,0,*7E
1507190813.37,59565,12.69,73136.0,1.37,-2.07,-1.55,0,*76
1507190814.58,59566,12.69,73134.5,1.37,-1.67,-1.21,0,*73
1507190815.82,59567,12.69,73140.0,1.37,-1.67,-1.09,0,*78
1507190817.08,59568,12.69,73128.8,1.37,-1.95,-1.39,0,*79
1507190818.33,59569,12.69,73104.0,1.39,-1.95,-1.39,0,*76
1507190819.52,59570,12.69,73076.5,1.39,-1.55,-1.21,0,*7B
1507190820.73,59571,12.69,73036.0,1.39,-2.15,-1.95,0,*72
1507190821.97,59572,12.63,73070.3,1.37,-2.19,-2.03,0,*7F
1507190823.19,59573,12.69,73148.3,1.37,-1.55,-1.29,0,*7E
1507190824.42,59574,12.69,73160.5,1.37,-1.29,-0.89,0,*49
1507190825.61,59575,12.63,73154.8,1.35,-1.67,-1.33,0,*70
1507190826.85,59576,12.69,73152.3,1.37,-1.79,-1.43,0,*79
1507190828.06,59577,12.69,73156.0,1.37,-1.55,-1.29,0,*7A
1507190829.28,59578,12.63,73146.0,1.39,-1.39,-0.81,0,*42
1507190830.49,59579,12.63,73122.5,1.39,-0.89,-0.45,0,*71
1507190831.71,59580,12.69,73108.0,1.43,-1.25,-0.77,0,*4C
1507190832.95,59581,12.69,73110.0,1.43,-1.29,-1.05,0,*75
1507190834.22,59582,12.69,73132.5,1.43,-1.05,-0.85,0,*41
1507190835.44,59583,12.69,73154.3,1.45,-1.05,-0.77,0,*4B
1507190836.66,59584,12.63,73148.5,1.45,-1.29,-1.01,0,*72
1507190837.91,59585,12.69,73154.5,1.47,-1.43,-1.21,0,*7F
1507190839.15,59586,12.69,73154.5,1.47,-1.43,-1.25,0,*78
1507190840.42,59587,12.63,73142.3,1.47,-1.43,-1.13,0,*7C
1507190841.64,59588,12.69,73124.3,1.47,-1.71,-1.33,0,*70
1507190842.85,59589,12.63,73124.0,1.49,-1.55,-1.13,0,*7B
1507190844.08,59590,12.63,73104.3,1.49,-1.47,-0.89,0,*42
1507190845.3,59591,12.63,73100.8,1.49,-1.47,-1.21,0,*70
1507190846.52,59592,12.63,73112.0,1.51,-1.51,-1.21,0,*7D
1507190847.75,59593,12.63,73116.0,1.49,-1.35,-0.97,0,*4B
1507190848.97,59594,12.69,73084.5,1.51,-1.71,-1.29,0,*71
1507190850.23,59595,12.63,73100.3,1.51,-1.43,-0.93,0,*41
1507190851.46,59596,12.63,73120.3,1.51,-0.93,-0.45,0,*75
1507190852.69,59597,12.63,73114.8,1.51,-0.93,-0.69,0,*7A
1507190853.95,59598,12.63,73128.5,1.51,-1.09,-0.93,0,*42
1507190855.13,59599,12.63,73142.5,1.53,-0.73,-0.65,0,*74
1507190856.34,59600,12.69,73146.8,1.53,-0.89,-0.77,0,*71
1507190857.61,59601,12.63,73144.5,1.55,-1.13,-0.89,0,*45
1507190858.81,59602,12.69,73152.5,1.53,-0.93,-0.73,0,*7C
1507190860.05,59603,12.69,73168.0,1.55,-1.29,-1.13,0,*7C
1507190861.31,59604,12.63,73170.0,1.55,-1.17,-1.05,0,*71
1507190862.52,59605,12.63,73180.0,1.57,-1.63,-1.43,0,*73
1507190863.74,59606,12.63,73182.8,1.57,-1.99,-1.75,0,*70
1507190864.96,59607,12.63,73174.0,1.57,-2.11,-1.71,0,*76
1507190866.2,59608,12.63,73140.3,1.57,-1.99,-1.43,0,*7B
1507190867.45,59609,12.69,73142.0,1.57,-2.47,-1.83,0,*76
1507190868.71,59610,12.63,73152.0,1.55,-2.67,-1.87,0,*7A
1507190869.96,59611,12.63,73148.3,1.55,-2.35,-1.39,0,*79
1507190871.22,59612,12.63,73160.3,1.55,-1.87,-0.93,0,*41
1507190872.43,59613,12.63,73138.8,1.57,-1.75,-1.09,0,*7D
1507190873.66,59614,12.63,73144.3,1.57,-1.83,-0.97,0,*45
1507190874.89,59615,12.63,73140.8,1.57,-1.83,-0.89,0,*4B
1507190876.12,59616,12.63,73140.3,1.57,-1.99,-0.89,0,*43
1507190877.33,59617,12.69,73136.0,1.57,-1.71,-0.85,0,*48
1507190878.52,59618,12.63,73124.3,1.57,-1.59,-0.73,0,*44
1507190879.78,59619,12.63,73124.8,1.55,-1.39,-0.89,0,*44
1507190881.01,59620,12.63,73112.3,1.55,-1.17,-0.73,0,*47
1507190882.24,59621,12.63,73118.8,1.55,-1.29,-0.89,0,*4E
1507190883.49,59622,12.63,73116.5,1.55,-1.05,-0.77,0,*42
1507190884.7,59623,12.63,73128.0,1.55,-0.77,-0.65,0,*74
1507190885.91,59624,12.69,73126.3,1.55,-0.73,-0.65,0,*77
1507190887.14,59625,12.63,73110.0,1.55,-1.25,-1.13,0,*74
1507190888.33,59626,12.63,73100.3,1.53,-1.51,-1.51,0,*74
1507190889.57,59627,12.63,73094.5,1.55,-1.59,-1.47,0,*7C
1507190890.79,59628,12.63,73072.3,1.53,-1.87,-1.75,0,*77
1507190891.98,59629,12.63,73064.3,1.53,-1.79,-1.75,0,*77
1507190893.22,59630,12.63,73090.3,1.51,-2.15,-2.03,0,*76
1507190894.44,59631,12.63,73090.3,1.49,-1.87,-1.59,0,*7A
1507190895.68,59632,12.69,73124.3,1.49,-2.11,-1.83,0,*72
1507190896.9,59633,12.63,73128.5,1.49,-2.11,-1.59,0,*74
1507190898.18,59634,12.63,73130.8,1.47,-1.99,-1.43,0,*75
1507190899.42,59635,12.63,73118.0,1.47,-2.19,-1.43,0,*7F
1507190900.67,59636,12.63,73130.8,1.47,-2.31,-1.43,0,*76
1507190901.91,59637,12.63,73116.3,1.45,-2.11,-1.01,0,*71
1507190903.1,59638,12.63,73112.8,1.45,-1.75,-0.77,0,*4F
1507190904.37,59639,12.63,73136.0,1.47,-1.83,-0.85,0,*48
1507190905.63,59640,12.63,73148.5,1.47,-1.99,-0.97,0,*4E
1507190906.86,59641,12.63,73150.8,1.45,-2.11,-1.17,0,*77
1507190908.04,59642,12.69,73158.0,1.45,-1.63,-0.53,0,*43
1507190909.26,59643,12.63,73146.3,1.45,-1.35,-0.29,0,*4C
1507190910.5,59644,12.63,73140.0,1.47,-1.47,-0.45,0,*46
1507190911.73,59645,12.63,73130.5,1.47,-1.09,0.01,0,*50
1507190912.95,59646,12.63,73140.3,1.49,-0.89,0.17,0,*53
1507190914.17,59647,12.63,73138.5,1.51,-0.93,0.09,0,*6F
1507190915.4,59648,12.63,73150.5,1.51,-0.93,0.05,0,*6C